| time (UTC) | temp C | wind direction | speed KPH | gust KPH | rain 1hr cm | rain 24hr cm | rain mn cm | humidity % | barometer mb |
| 20260507013033 | 16 | 275 | 0.0 | 3.2 | 0.00 | 0.00 | 0.00 | 81 | 1011.6 |
| 20260507011534 | 16 | 310 | 0.0 | 3.2 | 0.00 | 0.00 | 0.00 | 81 | 1011.5 |
| 20260507010037 | 16 | 0 | 0.0 | 1.6 | 0.00 | 0.00 | 0.00 | 80 | 1011.4 |
| 20260507004530 | 16 | 73 | 0.0 | 1.6 | 0.00 | 0.00 | 0.00 | 80 | 1011.5 |
| 20260507003027 | 16 | 0 | 0.0 | 1.6 | 0.00 | 0.00 | 0.00 | 81 | 1011.6 |
| 20260507001533 | 16 | 0 | 0.0 | 1.6 | 0.00 | 0.00 | 0.00 | 81 | 1011.7 |
| 20260507000030 | 16 | 0 | 0.0 | 0.0 | 0.00 | 0.00 | 0.00 | 81 | 1011.9 |
| 20260506234544 | 16 | 0 | 0.0 | 0.0 | 0.00 | 0.00 | 0.00 | 81 | 1012.0 |
| 20260506233030 | 16 | 0 | 0.0 | 1.6 | 0.00 | 0.00 | 0.00 | 81 | 1012.1 |
| 20260506231529 | 17 | 0 | 0.0 | 1.6 | 0.00 | 0.00 | 0.00 | 81 | 1012.1 |
| 20260506230029 | 17 | 0 | 0.0 | 0.0 | 0.00 | 0.00 | 0.00 | 81 | 1012.0 |
| 20260506224530 | 17 | 73 | 0.0 | 1.6 | 0.00 | 0.00 | 0.00 | 81 | 1012.1 |
| 20260506223032 | 16 | 0 | 0.0 | 1.6 | 0.00 | 0.00 | 0.00 | 82 | 1012.1 |
| 20260506221527 | 17 | 0 | 0.0 | 3.2 | 0.00 | 0.00 | 0.00 | 81 | 1012.1 |
| 20260506220036 | 17 | 86 | 0.0 | 1.6 | 0.00 | 0.00 | 0.00 | 81 | 1012.1 |
| 20260506214530 | 17 | 0 | 0.0 | 3.2 | 0.00 | 0.00 | 0.00 | 81 | 1012.4 |
| 20260506213028 | 17 | 93 | 0.0 | 3.2 | 0.00 | 0.00 | 0.00 | 81 | 1012.4 |
| 20260506211527 | 17 | 107 | 0.0 | 3.2 | 0.00 | 0.00 | 0.00 | 80 | 1012.5 |
| 20260506210030 | 17 | 0 | 0.0 | 1.6 | 0.00 | 0.00 | 0.00 | 81 | 1012.6 |
| 20260506204535 | 17 | 0 | 0.0 | 3.2 | 0.00 | 0.00 | 0.00 | 81 | 1012.3 |
| 20260506203028 | 17 | 101 | 0.0 | 4.8 | 0.00 | 0.00 | 0.00 | 81 | 1012.3 |
| 20260506201528 | 17 | 95 | 3.2 | 4.8 | 0.00 | 0.00 | 0.00 | 81 | 1012.0 |
| 20260506200030 | 17 | 82 | 1.6 | 8.0 | 0.00 | 0.00 | 0.00 | 81 | 1011.9 |
| 20260506194535 | 17 | 107 | 3.2 | 9.7 | 0.00 | 0.00 | 0.00 | 80 | 1011.6 |
| 20260506193030 | 17 | 94 | 4.8 | 9.7 | 0.00 | 0.00 | 0.00 | 80 | 1011.4 |
| 20260506191530 | 18 | 113 | 4.8 | 12.9 | 0.00 | 0.00 | 0.00 | 79 | 1011.2 |
| 20260506190027 | 18 | 104 | 8.0 | 16.1 | 0.00 | 0.00 | 0.00 | 78 | 1011.3 |
| 20260506184530 | 18 | 96 | 8.0 | 17.7 | 0.00 | 0.00 | 0.00 | 77 | 1011.1 |
| 20260506183030 | 18 | 130 | 9.7 | 19.3 | 0.00 | 0.00 | 0.00 | 76 | 1010.9 |
| 20260506181530 | 18 | 84 | 9.7 | 22.5 | 0.00 | 0.00 | 0.00 | 75 | 1011.1 |
| 20260506180030 | 19 | 75 | 8.0 | 17.7 | 0.00 | 0.00 | 0.00 | 73 | 1011.0 |
| 20260506174529 | 19 | 95 | 9.7 | 20.9 | 0.00 | 0.00 | 0.00 | 72 | 1010.8 |
| 20260506173030 | 20 | 86 | 9.7 | 20.9 | 0.00 | 0.00 | 0.00 | 71 | 1010.8 |
| 20260506171530 | 19 | 92 | 14.5 | 29.0 | 0.00 | 0.00 | 0.00 | 71 | 1010.8 |
| 20260506170029 | 20 | 117 | 12.9 | 24.1 | 0.00 | 0.00 | 0.00 | 71 | 1010.9 |
| 20260506164528 | 20 | 70 | 14.5 | 27.4 | 0.00 | 0.00 | 0.00 | 70 | 1010.7 |
| 20260506163030 | 20 | 70 | 14.5 | 27.4 | 0.00 | 0.00 | 0.00 | 67 | 1010.4 |
| 20260506161532 | 20 | 116 | 16.1 | 29.0 | 0.00 | 0.00 | 0.00 | 66 | 1010.5 |
| 20260506160038 | 20 | 115 | 14.5 | 24.1 | 0.00 | 0.00 | 0.00 | 66 | 1010.5 |
| 20260506154532 | 20 | 129 | 17.7 | 29.0 | 0.00 | 0.00 | 0.00 | 66 | 1010.3 |
| 20260506153029 | 20 | 113 | 14.5 | 27.4 | 0.00 | 0.00 | 0.00 | 66 | 1010.5 |
| 20260506151528 | 21 | 117 | 14.5 | 29.0 | 0.00 | 0.00 | 0.00 | 66 | 1010.5 |
| 20260506150029 | 21 | 134 | 16.1 | 29.0 | 0.00 | 0.00 | 0.00 | 65 | 1010.6 |
| 20260506144527 | 21 | 63 | 16.1 | 27.4 | 0.00 | 0.00 | 0.00 | 67 | 1010.7 |
| 20260506143033 | 21 | 153 | 19.3 | 29.0 | 0.00 | 0.00 | 0.00 | 67 | 1010.7 |
| 20260506141528 | 21 | 107 | 14.5 | 32.2 | 0.00 | 0.00 | 0.00 | 67 | 1010.8 |
| 20260506140030 | 21 | 99 | 17.7 | 32.2 | 0.00 | 0.00 | 0.00 | 68 | 1010.8 |
| 20260506134526 | 21 | 96 | 17.7 | 29.0 | 0.00 | 0.00 | 0.00 | 68 | 1011.0 |
| 20260506133030 | 21 | 102 | 16.1 | 25.7 | 0.00 | 0.00 | 0.00 | 65 | 1011.0 |
| 20260506131543 | 22 | 105 | 11.3 | 29.0 | 0.00 | 0.00 | 0.00 | 65 | 1010.9 |
| 20260506130037 | 21 | 64 | 16.1 | 30.6 | 0.00 | 0.00 | 0.00 | 65 | 1011.0 |
| 20260506124531 | 22 | 130 | 14.5 | 25.7 | 0.00 | 0.00 | 0.00 | 63 | 1011.1 |
| 20260506123028 | 22 | 92 | 12.9 | 25.7 | 0.00 | 0.00 | 0.00 | 62 | 1011.1 |
| 20260506121530 | 22 | 137 | 14.5 | 24.1 | 0.00 | 0.00 | 0.00 | 63 | 1011.2 |
| 20260506120028 | 21 | 98 | 16.1 | 29.0 | 0.00 | 0.00 | 0.00 | 63 | 1011.4 |
| 20260506114528 | 22 | 95 | 14.5 | 27.4 | 0.00 | 0.00 | 0.00 | 62 | 1011.4 |
| 20260506113030 | 21 | 133 | 14.5 | 27.4 | 0.00 | 0.00 | 0.00 | 63 | 1011.4 |
| 20260506111527 | 22 | 115 | 16.1 | 24.1 | 0.00 | 0.00 | 0.00 | 63 | 1011.5 |
| 20260506110028 | 22 | 63 | 11.3 | 22.5 | 0.00 | 0.00 | 0.00 | 61 | 1011.4 |
| 20260506104530 | 22 | 123 | 16.1 | 30.6 | 0.00 | 0.00 | 0.00 | 60 | 1011.6 |
| 20260506103037 | 22 | 115 | 12.9 | 25.7 | 0.00 | 0.00 | 0.00 | 58 | 1011.7 |
| 20260506101528 | 22 | 92 | 8.0 | 17.7 | 0.00 | 0.00 | 0.00 | 57 | 1011.7 |
| 20260506100035 | 21 | 112 | 9.7 | 22.5 | 0.00 | 0.00 | 0.00 | 60 | 1011.8 |
| 20260506094535 | 21 | 49 | 6.4 | 19.3 | 0.00 | 0.00 | 0.00 | 59 | 1011.8 |
| 20260506093035 | 21 | 82 | 8.0 | 16.1 | 0.00 | 0.00 | 0.00 | 64 | 1011.7 |
| 20260506091531 | 21 | 75 | 6.4 | 17.7 | 0.00 | 0.00 | 0.00 | 64 | 1011.6 |
| 20260506090028 | 21 | 134 | 0.0 | 6.4 | 0.00 | 0.00 | 0.00 | 67 | 1011.5 |
| 20260506084530 | 20 | 0 | 0.0 | 9.7 | 0.00 | 0.00 | 0.00 | 71 | 1011.4 |
| 20260506083030 | 20 | 58 | 0.0 | 4.8 | 0.00 | 0.00 | 0.00 | 71 | 1011.6 |
| 20260506081533 | 20 | 216 | 1.6 | 4.8 | 0.00 | 0.00 | 0.00 | 72 | 1011.5 |
| 20260506073028 | 20 | 0 | 0.0 | 1.6 | 0.00 | 0.00 | 0.00 | 72 | 1011.5 |
| 20260506071529 | 18 | 0 | 0.0 | 1.6 | 0.00 | 0.00 | 0.00 | 74 | 1011.4 |
| 20260506061528 | -17 | 0.0 | 0.0 | 0.00 | 0.00 | 0.00 | 1011.5 | ||
| 20260506044532 | -17 | 0.0 | 0.0 | 0.00 | 0.00 | 0.00 | 1010.6 | ||
| 20260506043029 | -17 | 0.0 | 0.0 | 0.00 | 0.00 | 0.00 | 1010.5 | ||
| 20260506041528 | -17 | 0.0 | 0.0 | 0.00 | 0.00 | 0.00 | 1010.5 | ||
| 20260506040028 | -17 | 0.0 | 0.0 | 0.00 | 0.00 | 0.00 | 1010.4 | ||
| 20260506034528 | -17 | 0.0 | 0.0 | 0.00 | 0.00 | 0.00 | 1010.4 | ||
| 20260506033029 | -17 | 0.0 | 0.0 | 0.00 | 0.00 | 0.00 | 1010.3 | ||
| 20260506031530 | -17 | 0.0 | 0.0 | 0.00 | 0.00 | 0.00 | 1010.3 | ||
| 20260506030035 | -17 | 0.0 | 0.0 | 0.00 | 0.00 | 0.00 | 1010.0 | ||
| 20260506024541 | -17 | 0.0 | 0.0 | 0.00 | 0.00 | 0.00 | 1010.1 | ||
| 20260506023030 | -17 | 0.0 | 0.0 | 0.00 | 0.00 | 0.00 | 1010.0 | ||
| 20260506021530 | -17 | 0.0 | 0.0 | 0.00 | 0.00 | 0.00 | 1010.2 | ||
| 20260506020030 | -17 | 0.0 | 0.0 | 0.00 | 0.00 | 0.00 | 1010.2 | ||
| 20260506014535 | -17 | 0.0 | 0.0 | 0.00 | 0.00 | 0.00 | 1010.4 |